Location: Unspecified
(0.0000°N, 0.0000°E)
Time: 02:01:32
(UTC+00:00)

Vanguard 1 - Pass Details

Date: 20 December 2018
Orbit: 650 x 3833 km, 34.3° (Epoch: 16 January)

Event Time Altitude Azimuth Distance (km) Brightness Sun altitude
Rises 20:54:45 0° 225° (SW) 7,853 15.5 -39.8°
Reaches altitude 10° 21:03:07 10° 210° (SSW) 6,470 14.7 -41.6°
Maximum altitude 21:16:04 21° 168° (SSE) 4,651 13.5 -44.3°
Enters shadow 21:22:44 15° 137° (SE) 4,409 13.2 -45.7°
